Location: Dattensoll
(49.9928°N, 9.8954°E)
Time: 21:41:22
(UTC+00:00)

Cosmos 2112 Rocket - Pass Details

Date: 19 May 2025
Orbit: 753 x 782 km, 74.0° (Epoch: 15 June)

Event Time Altitude Azimuth Distance (km) Brightness Sun altitude
Exits shadow 23:41:15 40° 179° (S) 1,114 4.3 -19.8°
Maximum altitude 23:43:04 69° 110° (ESE) 822 4.0 -19.8°
Drops below altitude 10° 23:48:16 10° 28° (NNE) 2,307 7.5 -19.7°
Sets 23:50:38 0° 26° (NNE) 3,233 8.6 -19.6°
